Location: Joplin
(37.0842°N, 94.5131°W)
Time: 12:08:14
(UTC-05:00)

Hubble Space Telescope - Visible Passes

Search period start: 23 October 2018 00:00
Search period end: 02 November 2018 00:00
Orbit: 537 x 541 km, 28.5° (Epoch: 22 October)

Date Brightness Start Highest point End Pass type
(mag) Time Alt. Az. Time Alt. Az. Time Alt. Az.
23 Oct 3.4 05:06:43 14° SE 05:06:43 14° SE 05:07:27 10° SE visible
23 Oct 3.0 06:42:44 10° SW 06:44:45 13° SSW 06:46:45 10° SSE visible
24 Oct 3.1 06:33:00 10° SW 06:34:12 11° SSW 06:35:25 10° S visible
